Year,Month,Day,Hour,Minute,Value (Times are PST for temperature in C)
2013,05,03,00,00,7.70
2013,05,03,00,01,7.70
2013,05,03,00,02,7.70
2013,05,03,00,03,7.70
2013,05,03,00,04,7.70
2013,05,03,00,05,7.70
2013,05,03,00,06,7.60
2013,05,03,00,07,7.60
2013,05,03,00,08,7.60
2013,05,03,00,09,7.50
2013,05,03,00,10,7.50
2013,05,03,00,11,7.40
2013,05,03,00,12,7.40
2013,05,03,00,13,7.40
2013,05,03,00,14,7.40
2013,05,03,00,15,7.40
2013,05,03,00,16,7.40
2013,05,03,00,17,7.40
2013,05,03,00,18,7.40
2013,05,03,00,19,7.40
2013,05,03,00,20,7.40
2013,05,03,00,21,7.40
2013,05,03,00,22,7.40
2013,05,03,00,23,7.40
2013,05,03,00,24,7.30
2013,05,03,00,25,7.30
2013,05,03,00,26,7.30
2013,05,03,00,27,7.30
2013,05,03,00,28,7.20
2013,05,03,00,29,7.20
2013,05,03,00,30,7.20
2013,05,03,00,31,7.20
2013,05,03,00,32,7.20
2013,05,03,00,33,7.20
2013,05,03,00,34,7.10
2013,05,03,00,35,7.10
2013,05,03,00,36,7.10
2013,05,03,00,37,7.10
2013,05,03,00,38,7.10
2013,05,03,00,39,7.00
2013,05,03,00,40,7.00
2013,05,03,00,41,7.00
2013,05,03,00,42,6.90
2013,05,03,00,43,6.90
2013,05,03,00,44,6.90
2013,05,03,00,45,6.90
2013,05,03,00,46,6.90
2013,05,03,00,47,6.90
2013,05,03,00,48,6.90
2013,05,03,00,49,6.90
2013,05,03,00,50,6.90
2013,05,03,00,51,6.90
2013,05,03,00,52,6.90
2013,05,03,00,53,6.90
2013,05,03,00,54,6.90
2013,05,03,00,55,6.80
2013,05,03,00,56,6.80
2013,05,03,00,57,6.80
2013,05,03,00,58,6.80
2013,05,03,00,59,6.80
2013,05,03,01,00,6.80
2013,05,03,01,01,6.80
2013,05,03,01,02,6.70
2013,05,03,01,03,6.70
2013,05,03,01,04,6.70
2013,05,03,01,05,6.70
2013,05,03,01,06,6.70
2013,05,03,01,07,6.70
2013,05,03,01,08,6.70
2013,05,03,01,09,6.70
2013,05,03,01,10,6.80
2013,05,03,01,11,6.80
2013,05,03,01,12,6.80
2013,05,03,01,13,6.80
2013,05,03,01,14,6.80
2013,05,03,01,15,6.80
2013,05,03,01,16,6.80
2013,05,03,01,17,6.80
2013,05,03,01,18,6.90
2013,05,03,01,19,6.90
2013,05,03,01,20,6.90
2013,05,03,01,21,6.90
2013,05,03,01,22,6.90
2013,05,03,01,23,6.90
2013,05,03,01,24,7.00
2013,05,03,01,25,7.00
2013,05,03,01,26,7.00
2013,05,03,01,27,7.00
2013,05,03,01,28,7.00
2013,05,03,01,29,7.00
2013,05,03,01,30,7.00
2013,05,03,01,31,7.00
2013,05,03,01,32,6.90
2013,05,03,01,33,6.90
2013,05,03,01,34,6.90
2013,05,03,01,35,7.00
2013,05,03,01,36,7.00
2013,05,03,01,37,7.00
2013,05,03,01,38,7.00
2013,05,03,01,39,7.00
2013,05,03,01,40,7.00
2013,05,03,01,41,7.00
2013,05,03,01,42,7.00
2013,05,03,01,43,7.00
2013,05,03,01,44,7.00
2013,05,03,01,45,7.00
2013,05,03,01,46,7.00
2013,05,03,01,47,7.00
2013,05,03,01,48,6.90
2013,05,03,01,49,6.90
2013,05,03,01,50,6.90
2013,05,03,01,51,6.90
2013,05,03,01,52,6.90
2013,05,03,01,53,6.90
2013,05,03,01,54,6.90
2013,05,03,01,55,6.90
2013,05,03,01,56,6.80
2013,05,03,01,57,6.80
2013,05,03,01,58,6.80
2013,05,03,01,59,6.80
2013,05,03,02,00,6.80
2013,05,03,02,01,6.80
2013,05,03,02,02,6.80
2013,05,03,02,03,6.80
2013,05,03,02,04,6.80
2013,05,03,02,05,6.80
2013,05,03,02,06,6.70
2013,05,03,02,07,6.70
2013,05,03,02,08,6.70
2013,05,03,02,09,6.70
2013,05,03,02,10,6.70
2013,05,03,02,11,6.60
2013,05,03,02,12,6.60
2013,05,03,02,13,6.60
2013,05,03,02,14,6.60
2013,05,03,02,15,6.60
2013,05,03,02,16,6.60
2013,05,03,02,17,6.60
2013,05,03,02,18,6.60
2013,05,03,02,19,6.60
2013,05,03,02,20,6.60
2013,05,03,02,21,6.60
2013,05,03,02,22,6.60
2013,05,03,02,23,6.60
2013,05,03,02,24,6.60
2013,05,03,02,25,6.60
2013,05,03,02,26,6.60
2013,05,03,02,27,6.60
2013,05,03,02,28,6.60
2013,05,03,02,29,6.70
2013,05,03,02,30,6.70
2013,05,03,02,31,6.70
2013,05,03,02,32,6.70
2013,05,03,02,33,6.80
2013,05,03,02,34,6.80
2013,05,03,02,35,6.80
2013,05,03,02,36,6.80
2013,05,03,02,37,6.80
2013,05,03,02,38,6.80
2013,05,03,02,39,6.80
2013,05,03,02,40,6.90
2013,05,03,02,41,6.90
2013,05,03,02,42,6.90
2013,05,03,02,43,6.80
2013,05,03,02,44,6.80
2013,05,03,02,45,6.90
2013,05,03,02,46,6.90
2013,05,03,02,47,6.90
2013,05,03,02,48,6.90
2013,05,03,02,49,6.90
2013,05,03,02,50,7.00
2013,05,03,02,51,7.00
2013,05,03,02,52,7.00
2013,05,03,02,53,7.10
2013,05,03,02,54,7.10
2013,05,03,02,55,7.20
2013,05,03,02,56,7.20
2013,05,03,02,57,7.20
2013,05,03,02,58,7.20
2013,05,03,02,59,7.20
2013,05,03,03,00,7.30
2013,05,03,03,01,7.30
2013,05,03,03,02,7.40
2013,05,03,03,03,7.50
2013,05,03,03,06,7.80
2013,05,03,03,07,7.90
2013,05,03,03,08,8.00
2013,05,03,03,09,8.00
2013,05,03,03,10,8.10
2013,05,03,03,11,8.10
2013,05,03,03,12,8.20
2013,05,03,03,13,8.20
2013,05,03,03,14,8.30
2013,05,03,03,15,8.40
2013,05,03,03,16,8.40
2013,05,03,03,17,8.50
2013,05,03,03,18,8.50
2013,05,03,03,19,8.50
2013,05,03,03,20,8.50
2013,05,03,03,21,8.60
2013,05,03,03,22,8.60
2013,05,03,03,23,8.60
2013,05,03,03,24,8.50
2013,05,03,03,25,8.50
2013,05,03,03,26,8.50
2013,05,03,03,27,8.50
2013,05,03,03,28,8.40
2013,05,03,03,29,8.40
2013,05,03,03,30,8.40
2013,05,03,03,31,8.40
2013,05,03,03,32,8.40
2013,05,03,03,33,8.40
2013,05,03,03,34,8.40
2013,05,03,03,35,8.30
2013,05,03,03,36,8.40
2013,05,03,03,37,8.40
2013,05,03,03,38,8.40
2013,05,03,03,39,8.40
2013,05,03,03,40,8.30
2013,05,03,03,41,8.30
2013,05,03,03,42,8.30
2013,05,03,03,43,8.30
2013,05,03,03,44,8.30
2013,05,03,03,45,8.20
2013,05,03,03,46,8.20
2013,05,03,03,47,8.20
2013,05,03,03,48,8.20
2013,05,03,03,49,8.20
2013,05,03,03,50,8.20
2013,05,03,03,51,8.20
2013,05,03,03,52,8.20
2013,05,03,03,53,8.20
2013,05,03,03,54,8.20
2013,05,03,03,55,8.20
2013,05,03,03,56,8.30
2013,05,03,03,57,8.30
2013,05,03,03,58,8.30
2013,05,03,03,59,8.30
2013,05,03,04,00,8.30
2013,05,03,04,01,8.20
2013,05,03,04,02,8.20
2013,05,03,04,03,8.20
2013,05,03,04,04,8.20
2013,05,03,04,05,8.10
2013,05,03,04,06,8.10
2013,05,03,04,07,8.00
2013,05,03,04,08,8.00
2013,05,03,04,09,8.00
2013,05,03,04,10,7.90
2013,05,03,04,11,7.90
2013,05,03,04,12,7.80
2013,05,03,04,13,7.80
2013,05,03,04,14,7.80
2013,05,03,04,15,7.80
2013,05,03,04,16,7.80
2013,05,03,04,17,7.80
2013,05,03,04,18,7.80
2013,05,03,04,19,7.90
2013,05,03,04,20,7.90
2013,05,03,04,21,8.00
2013,05,03,04,22,8.00
2013,05,03,04,23,8.00
2013,05,03,04,24,8.00
2013,05,03,04,25,8.00
2013,05,03,04,26,8.00
2013,05,03,04,27,8.00
2013,05,03,04,28,8.00
2013,05,03,04,29,8.00
2013,05,03,04,30,8.00
2013,05,03,04,31,8.00
2013,05,03,04,32,8.10
2013,05,03,04,33,8.10
2013,05,03,04,34,8.20
2013,05,03,04,35,8.20
2013,05,03,04,36,8.30
2013,05,03,04,37,8.30
2013,05,03,04,38,8.40
2013,05,03,04,39,8.40
2013,05,03,04,40,8.60
2013,05,03,04,41,8.70
2013,05,03,04,42,8.80
2013,05,03,04,43,9.00
2013,05,03,04,44,9.10
2013,05,03,04,45,9.20
2013,05,03,04,46,9.20
2013,05,03,04,47,9.30
2013,05,03,04,48,9.30
2013,05,03,04,49,9.30
2013,05,03,04,50,9.30
2013,05,03,04,51,9.30
2013,05,03,04,52,9.30
2013,05,03,04,53,9.30
2013,05,03,04,54,9.30
2013,05,03,04,55,9.30
2013,05,03,04,56,9.20
2013,05,03,04,57,9.20
2013,05,03,04,58,9.20
2013,05,03,04,59,9.10
2013,05,03,05,00,9.00
2013,05,03,05,01,9.00
2013,05,03,05,02,8.90
2013,05,03,05,03,8.80
2013,05,03,05,04,8.80
2013,05,03,05,05,8.70
2013,05,03,05,06,8.70
2013,05,03,05,07,8.60
2013,05,03,05,08,8.60
2013,05,03,05,09,8.50
2013,05,03,05,10,8.40
2013,05,03,05,11,8.30
2013,05,03,05,12,8.30
2013,05,03,05,13,8.20
2013,05,03,05,14,8.20
2013,05,03,05,15,8.20
2013,05,03,05,16,8.20
2013,05,03,05,17,8.20
2013,05,03,05,18,8.10
2013,05,03,05,19,8.10
2013,05,03,05,20,8.10
2013,05,03,05,21,8.10
2013,05,03,05,22,8.00
2013,05,03,05,23,8.00
2013,05,03,05,24,8.00
2013,05,03,05,25,8.00
2013,05,03,05,26,8.00
2013,05,03,05,27,8.00
2013,05,03,05,28,8.00
2013,05,03,05,29,7.90
2013,05,03,05,30,7.90
2013,05,03,05,31,7.90
2013,05,03,05,32,7.90
2013,05,03,05,33,7.90
2013,05,03,05,34,7.90
2013,05,03,05,35,7.90
2013,05,03,05,36,7.90
2013,05,03,05,37,7.80
2013,05,03,05,38,7.80
2013,05,03,05,39,7.80
2013,05,03,05,40,7.80
2013,05,03,05,41,7.80
2013,05,03,05,42,7.70
2013,05,03,05,43,7.70
2013,05,03,05,44,7.70
2013,05,03,05,45,7.70
2013,05,03,05,46,7.60
2013,05,03,05,47,7.60
2013,05,03,05,48,7.50
2013,05,03,05,49,7.50
2013,05,03,05,50,7.50
2013,05,03,05,51,7.50
2013,05,03,05,52,7.40
2013,05,03,05,53,7.40
2013,05,03,05,54,7.40
2013,05,03,05,55,7.40
2013,05,03,05,56,7.40
2013,05,03,05,57,7.30
2013,05,03,05,58,7.30
2013,05,03,05,59,7.20
2013,05,03,06,00,7.20
2013,05,03,06,01,7.20
2013,05,03,06,02,7.20
2013,05,03,06,03,7.20
2013,05,03,06,04,7.20
2013,05,03,06,05,7.20
2013,05,03,06,06,7.20
2013,05,03,06,07,7.20
2013,05,03,06,08,7.20
2013,05,03,06,09,7.20
2013,05,03,06,10,7.20
2013,05,03,06,11,7.20
2013,05,03,06,12,7.20
2013,05,03,06,13,7.20
2013,05,03,06,14,7.20
2013,05,03,06,15,7.20
2013,05,03,06,16,7.20
2013,05,03,06,17,7.20
2013,05,03,06,18,7.20
2013,05,03,06,19,7.20
2013,05,03,06,20,7.20
2013,05,03,06,21,7.20
2013,05,03,06,22,7.20
2013,05,03,06,23,7.20
2013,05,03,06,24,7.20
2013,05,03,06,25,7.20
2013,05,03,06,26,7.10
2013,05,03,06,27,7.10
2013,05,03,06,28,7.10
2013,05,03,06,29,7.10
2013,05,03,06,30,7.10
2013,05,03,06,31,7.10
2013,05,03,06,32,7.20
2013,05,03,06,33,7.20
2013,05,03,06,34,7.20
2013,05,03,06,35,7.20
2013,05,03,06,36,7.10
2013,05,03,06,37,7.10
2013,05,03,06,38,7.10
2013,05,03,06,39,7.20
2013,05,03,06,40,7.20
2013,05,03,06,41,7.20
2013,05,03,06,42,7.20
2013,05,03,06,43,7.20
2013,05,03,06,44,7.20
2013,05,03,06,45,7.20
2013,05,03,06,46,7.20
2013,05,03,06,47,7.30
2013,05,03,06,48,7.30
2013,05,03,06,49,7.50
2013,05,03,06,50,7.50
2013,05,03,06,51,7.60
2013,05,03,06,52,7.60
2013,05,03,06,53,7.70
2013,05,03,06,54,7.70
2013,05,03,06,55,7.70
2013,05,03,06,56,7.80
2013,05,03,06,57,7.90
2013,05,03,06,58,7.90
2013,05,03,06,59,7.90
2013,05,03,07,00,7.90
2013,05,03,07,01,8.00
2013,05,03,07,02,8.10
2013,05,03,07,03,8.20
2013,05,03,07,04,8.20
2013,05,03,07,05,8.30
2013,05,03,07,06,8.40
2013,05,03,07,07,8.50
2013,05,03,07,08,8.60
2013,05,03,07,09,8.70
2013,05,03,07,10,8.80
2013,05,03,07,11,8.90
2013,05,03,07,12,9.00
2013,05,03,07,13,9.00
2013,05,03,07,14,9.10
2013,05,03,07,15,9.20
2013,05,03,07,16,9.30
2013,05,03,07,17,9.40
2013,05,03,07,18,9.50
2013,05,03,07,19,9.60
2013,05,03,07,20,9.70
2013,05,03,07,21,9.80
2013,05,03,07,22,9.90
2013,05,03,07,23,10.10
2013,05,03,07,24,10.20
2013,05,03,07,25,10.30
2013,05,03,07,26,10.50
2013,05,03,07,27,10.60
2013,05,03,07,28,10.80
2013,05,03,07,29,10.90
2013,05,03,07,30,11.10
2013,05,03,07,31,11.20
2013,05,03,07,32,11.40
2013,05,03,07,33,11.50
2013,05,03,07,34,11.60
2013,05,03,07,35,11.70
2013,05,03,07,36,11.80
2013,05,03,07,37,11.90
2013,05,03,07,38,12.00
2013,05,03,07,39,12.00
2013,05,03,07,40,12.10
2013,05,03,07,41,12.10
2013,05,03,07,42,12.10
2013,05,03,07,43,12.10
2013,05,03,07,44,12.10
2013,05,03,07,45,12.10
2013,05,03,07,46,12.20
2013,05,03,07,47,12.20
2013,05,03,07,48,12.20
2013,05,03,07,49,12.20
2013,05,03,07,50,12.20
2013,05,03,07,51,12.20
2013,05,03,07,52,12.20
2013,05,03,07,53,12.20
2013,05,03,07,54,12.20
2013,05,03,07,55,12.30
2013,05,03,07,56,12.30
2013,05,03,07,57,12.40
2013,05,03,07,58,12.50
2013,05,03,07,59,12.60
2013,05,03,08,00,12.70
2013,05,03,08,01,12.80
2013,05,03,08,02,12.90
2013,05,03,08,03,12.90
2013,05,03,08,04,13.00
2013,05,03,08,05,13.00
2013,05,03,08,06,13.10
2013,05,03,08,07,13.20
2013,05,03,08,08,13.20
2013,05,03,08,09,13.30
2013,05,03,08,10,13.30
2013,05,03,08,11,13.30
2013,05,03,08,12,13.30
2013,05,03,08,13,13.30
2013,05,03,08,14,13.30
2013,05,03,08,15,13.30
2013,05,03,08,16,13.30
2013,05,03,08,17,13.20
2013,05,03,08,18,13.10
2013,05,03,08,19,13.10
2013,05,03,08,20,13.00
2013,05,03,08,21,13.00
2013,05,03,08,22,13.00
2013,05,03,08,23,12.90
2013,05,03,08,24,12.90
2013,05,03,08,25,12.90
2013,05,03,08,26,12.90
2013,05,03,08,27,12.80
2013,05,03,08,28,12.80
2013,05,03,08,29,12.80
2013,05,03,08,30,12.80
2013,05,03,08,31,12.90
2013,05,03,08,32,12.90
2013,05,03,08,33,12.90
2013,05,03,08,34,12.90
2013,05,03,08,35,12.90
2013,05,03,08,36,12.80
2013,05,03,08,37,12.80
2013,05,03,08,38,12.80
2013,05,03,08,39,12.90
2013,05,03,08,40,12.90
2013,05,03,08,41,12.80
2013,05,03,08,42,12.80
2013,05,03,08,43,12.80
2013,05,03,08,44,12.80
2013,05,03,08,45,12.80
2013,05,03,08,46,12.80
2013,05,03,08,47,12.90
2013,05,03,08,48,13.00
2013,05,03,08,49,13.10
2013,05,03,08,50,13.00
2013,05,03,08,51,12.90
2013,05,03,08,52,12.90
2013,05,03,08,53,12.80
2013,05,03,08,54,12.80
2013,05,03,08,55,12.80
2013,05,03,08,56,12.80
2013,05,03,08,57,12.80
2013,05,03,08,58,12.80
2013,05,03,08,59,12.80
2013,05,03,09,00,12.80
2013,05,03,09,01,12.70
2013,05,03,09,02,12.70
2013,05,03,09,03,12.80
2013,05,03,09,04,12.80
2013,05,03,09,05,12.90
2013,05,03,09,06,12.90
2013,05,03,09,07,13.00
2013,05,03,09,08,13.00
2013,05,03,09,09,13.00
2013,05,03,09,10,13.00
2013,05,03,09,11,13.00
2013,05,03,09,12,13.00
2013,05,03,09,13,13.10
2013,05,03,09,14,13.10
2013,05,03,09,15,13.10
2013,05,03,09,16,13.10
2013,05,03,09,17,13.10
2013,05,03,09,18,13.20
2013,05,03,09,19,13.30
2013,05,03,09,20,13.30
2013,05,03,09,21,13.30
2013,05,03,09,22,13.40
2013,05,03,09,23,13.40
2013,05,03,09,24,13.50
2013,05,03,09,25,13.60
2013,05,03,09,26,13.60
2013,05,03,09,27,13.60
2013,05,03,09,28,13.70
2013,05,03,09,29,13.70
2013,05,03,09,30,13.80
2013,05,03,09,31,13.80
2013,05,03,09,32,13.80
2013,05,03,09,33,13.80
2013,05,03,09,34,13.80
2013,05,03,09,35,13.90
2013,05,03,09,36,13.90
2013,05,03,09,37,14.00
2013,05,03,09,38,14.10
2013,05,03,09,39,14.20
2013,05,03,09,40,14.30
2013,05,03,09,41,14.40
2013,05,03,09,42,14.40
2013,05,03,09,43,14.30
2013,05,03,09,44,14.20
2013,05,03,09,45,14.10
2013,05,03,09,46,14.10
2013,05,03,09,47,14.00
2013,05,03,09,48,14.00
2013,05,03,09,49,14.00
2013,05,03,09,50,14.10
2013,05,03,09,51,14.10
2013,05,03,09,52,14.20
2013,05,03,09,53,14.30
2013,05,03,09,54,14.40
2013,05,03,09,55,14.40
2013,05,03,09,56,14.50
2013,05,03,09,57,14.50
2013,05,03,09,58,14.40
2013,05,03,09,59,14.40
2013,05,03,10,00,14.50
2013,05,03,10,01,14.50
2013,05,03,10,02,14.60
2013,05,03,10,03,14.60
2013,05,03,10,04,14.60
2013,05,03,10,05,14.70
2013,05,03,10,06,14.60
2013,05,03,10,07,14.60
2013,05,03,10,08,14.70
2013,05,03,10,09,14.70
2013,05,03,10,10,14.80
2013,05,03,10,11,14.80
2013,05,03,10,12,14.90
2013,05,03,10,13,14.90
2013,05,03,10,14,14.90
2013,05,03,10,15,15.00
2013,05,03,10,16,15.00
2013,05,03,10,17,15.00
2013,05,03,10,18,15.00
2013,05,03,10,19,14.90
2013,05,03,10,20,14.90
2013,05,03,10,21,14.90
2013,05,03,10,22,14.90
2013,05,03,10,23,15.00
2013,05,03,10,24,15.00
2013,05,03,10,25,15.00
2013,05,03,10,26,15.00
2013,05,03,10,27,15.00
2013,05,03,10,28,15.00
2013,05,03,10,29,14.90
2013,05,03,10,30,15.00
2013,05,03,10,31,15.00
2013,05,03,10,32,15.00
2013,05,03,10,33,15.10
2013,05,03,10,34,15.10
2013,05,03,10,35,15.20
2013,05,03,10,36,15.30
2013,05,03,10,37,15.30
2013,05,03,10,38,15.30
2013,05,03,10,39,15.40
2013,05,03,10,40,15.50
2013,05,03,10,41,15.50
2013,05,03,10,42,15.40
2013,05,03,10,43,15.40
2013,05,03,10,44,15.30
2013,05,03,10,45,15.30
2013,05,03,10,46,15.30
2013,05,03,10,47,15.30
2013,05,03,10,48,15.40
2013,05,03,10,49,15.50
2013,05,03,10,50,15.50
2013,05,03,10,51,15.60
2013,05,03,10,52,15.50
2013,05,03,10,53,15.50
2013,05,03,10,54,15.40
2013,05,03,10,55,15.40
2013,05,03,10,56,15.50
2013,05,03,10,57,15.60
2013,05,03,10,58,15.60
2013,05,03,10,59,15.70
2013,05,03,11,00,15.70
2013,05,03,11,01,15.70
2013,05,03,11,02,15.80
2013,05,03,11,03,15.90
2013,05,03,11,04,16.00
2013,05,03,11,05,16.00
2013,05,03,11,06,16.10
2013,05,03,11,07,16.30
2013,05,03,11,08,16.40
2013,05,03,11,09,16.60
2013,05,03,11,10,16.80
2013,05,03,11,11,16.80
2013,05,03,11,12,16.90
2013,05,03,11,13,17.00
2013,05,03,11,14,17.00
2013,05,03,11,15,17.10
2013,05,03,11,16,17.20
2013,05,03,11,17,17.10
2013,05,03,11,18,17.10
2013,05,03,11,19,17.00
2013,05,03,11,20,17.00
2013,05,03,11,21,17.00
2013,05,03,11,22,17.00
2013,05,03,11,23,17.10
2013,05,03,11,24,17.10
2013,05,03,11,25,17.20
2013,05,03,11,26,17.30
2013,05,03,11,27,17.40
2013,05,03,11,28,17.30
2013,05,03,11,29,17.30
2013,05,03,11,30,17.20
2013,05,03,11,31,17.20
2013,05,03,11,32,17.10
2013,05,03,11,33,17.00
2013,05,03,11,34,17.00
2013,05,03,11,35,16.90
2013,05,03,11,36,16.80
2013,05,03,11,37,16.90
2013,05,03,11,38,17.00
2013,05,03,11,39,17.10
2013,05,03,11,40,17.20
2013,05,03,11,41,17.20
2013,05,03,11,42,17.20
2013,05,03,11,43,17.20
2013,05,03,11,44,17.20
2013,05,03,11,45,17.30
2013,05,03,11,46,17.50
2013,05,03,11,47,17.50
2013,05,03,11,48,17.70
2013,05,03,11,49,17.80
2013,05,03,11,50,17.90
2013,05,03,11,51,18.00
2013,05,03,11,52,18.10
2013,05,03,11,53,18.20
2013,05,03,11,54,18.30
2013,05,03,11,55,18.40
2013,05,03,11,56,18.40
2013,05,03,11,57,18.50
2013,05,03,11,58,18.60
2013,05,03,11,59,18.60
2013,05,03,12,00,18.60
2013,05,03,12,01,18.70
2013,05,03,12,02,18.80
2013,05,03,12,03,18.80
2013,05,03,12,04,18.80
2013,05,03,12,05,18.60
2013,05,03,12,06,18.50
2013,05,03,12,07,18.40
2013,05,03,12,08,18.30
2013,05,03,12,09,18.30
2013,05,03,12,10,18.30
2013,05,03,12,11,18.30
2013,05,03,12,12,18.30
2013,05,03,12,13,18.30
2013,05,03,12,14,18.30
2013,05,03,12,15,18.30
2013,05,03,12,16,18.30
2013,05,03,12,17,18.30
2013,05,03,12,18,18.20
2013,05,03,12,19,18.20
2013,05,03,12,20,18.10
2013,05,03,12,21,18.10
2013,05,03,12,22,18.10
2013,05,03,12,23,18.10
2013,05,03,12,24,18.10
2013,05,03,12,25,18.10
2013,05,03,12,26,18.10
2013,05,03,12,27,18.00
2013,05,03,12,28,18.00
2013,05,03,12,29,18.00
2013,05,03,12,30,17.90
2013,05,03,12,31,17.90
2013,05,03,12,32,17.90
2013,05,03,12,33,17.90
2013,05,03,12,34,17.90
2013,05,03,12,35,17.90
2013,05,03,12,36,17.90
2013,05,03,12,37,17.90
2013,05,03,12,38,18.00
2013,05,03,12,39,18.10
2013,05,03,12,40,18.20
2013,05,03,12,41,18.20
2013,05,03,12,42,18.10
2013,05,03,12,43,18.10
2013,05,03,12,44,18.10
2013,05,03,12,45,18.10
2013,05,03,12,46,18.10
2013,05,03,12,47,18.10
2013,05,03,12,48,18.10
2013,05,03,12,49,18.10
2013,05,03,12,50,18.00
2013,05,03,12,51,17.90
2013,05,03,12,52,17.80
2013,05,03,12,53,17.70
2013,05,03,12,54,17.60
2013,05,03,12,55,17.50
2013,05,03,12,56,17.40
2013,05,03,12,57,17.40
2013,05,03,12,58,17.30
2013,05,03,12,59,17.30
2013,05,03,13,00,17.30
2013,05,03,13,01,17.30
2013,05,03,13,02,17.30
2013,05,03,13,03,17.30
2013,05,03,13,04,17.40
2013,05,03,13,05,17.40
2013,05,03,13,06,17.50
2013,05,03,13,07,17.60
2013,05,03,13,08,17.60
2013,05,03,13,09,17.60
2013,05,03,13,10,17.50
2013,05,03,13,11,17.40
2013,05,03,13,12,17.40
2013,05,03,13,13,17.30
2013,05,03,13,14,17.30
2013,05,03,13,15,17.30
2013,05,03,13,16,17.30
2013,05,03,13,17,17.30
2013,05,03,13,18,17.30
2013,05,03,13,19,17.20
2013,05,03,13,20,17.10
2013,05,03,13,21,17.10
2013,05,03,13,22,17.10
2013,05,03,13,23,17.10
2013,05,03,13,24,17.10
2013,05,03,13,25,17.30
2013,05,03,13,26,17.40
2013,05,03,13,27,17.50
2013,05,03,13,28,17.50
2013,05,03,13,29,17.50
2013,05,03,13,30,17.50
2013,05,03,13,31,17.50
2013,05,03,13,32,17.40
2013,05,03,13,33,17.30
2013,05,03,13,34,17.30
2013,05,03,13,35,17.30
2013,05,03,13,36,17.30
2013,05,03,13,37,17.20
2013,05,03,13,38,17.10
2013,05,03,13,39,17.10
2013,05,03,13,40,17.10
2013,05,03,13,41,17.10
2013,05,03,13,42,17.10
2013,05,03,13,43,17.10
2013,05,03,13,44,17.10
2013,05,03,13,45,17.10
2013,05,03,13,46,17.20
2013,05,03,13,47,17.30
2013,05,03,13,48,17.40
2013,05,03,13,49,17.30
2013,05,03,13,50,17.30
2013,05,03,13,51,17.30
2013,05,03,13,52,17.30
2013,05,03,13,53,17.30
2013,05,03,13,54,17.30
2013,05,03,13,55,17.30
2013,05,03,13,56,17.30
2013,05,03,13,57,17.40
2013,05,03,13,58,17.40
2013,05,03,13,59,17.50
2013,05,03,14,00,17.70
2013,05,03,14,01,17.90
2013,05,03,14,02,18.10
2013,05,03,14,03,18.20
2013,05,03,14,04,18.20
2013,05,03,14,05,18.20
2013,05,03,14,06,18.30
2013,05,03,14,07,18.30
2013,05,03,14,08,18.30
2013,05,03,14,09,18.30
2013,05,03,14,10,18.20
2013,05,03,14,11,18.20
2013,05,03,14,12,18.20
2013,05,03,14,13,18.20
2013,05,03,14,14,18.20
2013,05,03,14,15,18.20
2013,05,03,14,16,18.20
2013,05,03,14,17,18.00
2013,05,03,14,18,17.80
2013,05,03,14,19,17.70
2013,05,03,14,20,17.70
2013,05,03,14,21,17.70
2013,05,03,14,22,17.80
2013,05,03,14,23,17.80
2013,05,03,14,24,17.90
2013,05,03,14,25,18.00
2013,05,03,14,26,18.10
2013,05,03,14,27,18.20
2013,05,03,14,28,18.20
2013,05,03,14,29,18.10
2013,05,03,14,30,18.10
2013,05,03,14,31,18.30
2013,05,03,14,32,18.40
2013,05,03,14,33,18.50
2013,05,03,14,34,18.60
2013,05,03,14,35,18.70
2013,05,03,14,36,18.70
2013,05,03,14,37,18.70
2013,05,03,14,38,18.70
2013,05,03,14,39,18.60
2013,05,03,14,40,18.60
2013,05,03,14,41,18.70
2013,05,03,14,42,18.70
2013,05,03,14,43,18.60
2013,05,03,14,44,18.60
2013,05,03,14,45,18.60
2013,05,03,14,46,18.60
2013,05,03,14,47,18.60
2013,05,03,14,48,18.70
2013,05,03,14,49,18.80
2013,05,03,14,50,18.90
2013,05,03,14,51,19.00
2013,05,03,14,52,19.10
2013,05,03,14,53,19.20
2013,05,03,14,54,19.20
2013,05,03,14,55,19.20
2013,05,03,14,56,19.30
2013,05,03,14,57,19.30
2013,05,03,14,58,19.30
2013,05,03,14,59,19.40
2013,05,03,15,00,19.50
2013,05,03,15,01,19.60
2013,05,03,15,02,19.60
2013,05,03,15,03,19.70
2013,05,03,15,04,19.70
2013,05,03,15,05,19.70
2013,05,03,15,06,19.80
2013,05,03,15,07,19.80
2013,05,03,15,08,19.80
2013,05,03,15,09,19.80
2013,05,03,15,10,19.80
2013,05,03,15,11,19.70
2013,05,03,15,12,19.70
2013,05,03,15,13,19.70
2013,05,03,15,14,19.60
2013,05,03,15,15,19.60
2013,05,03,15,16,19.60
2013,05,03,15,17,19.70
2013,05,03,15,18,19.80
2013,05,03,15,19,19.90
2013,05,03,15,20,20.00
2013,05,03,15,21,20.10
2013,05,03,15,22,20.10
2013,05,03,15,23,20.10
2013,05,03,15,24,20.00
2013,05,03,15,25,19.90
2013,05,03,15,26,19.80
2013,05,03,15,27,19.80
2013,05,03,15,28,19.80
2013,05,03,15,29,19.90
2013,05,03,15,30,19.90
2013,05,03,15,31,19.90
2013,05,03,15,32,19.90
2013,05,03,15,33,19.90
2013,05,03,15,34,19.90
2013,05,03,15,35,19.90
2013,05,03,15,36,19.90
2013,05,03,15,37,19.90
2013,05,03,15,38,20.00
2013,05,03,15,39,20.00
2013,05,03,15,40,20.00
2013,05,03,15,41,20.00
2013,05,03,15,42,20.00
2013,05,03,15,43,20.00
2013,05,03,15,44,20.00
2013,05,03,15,45,19.90
2013,05,03,15,46,20.00
2013,05,03,15,47,20.00
2013,05,03,15,48,20.00
2013,05,03,15,49,20.00
2013,05,03,15,50,19.90
2013,05,03,15,51,20.00
2013,05,03,15,52,20.00
2013,05,03,15,53,20.10
2013,05,03,15,54,20.10
2013,05,03,15,55,20.20
2013,05,03,15,56,20.10
2013,05,03,15,57,20.10
2013,05,03,15,58,20.10
2013,05,03,15,59,20.00
2013,05,03,16,00,19.90
2013,05,03,16,01,19.80
2013,05,03,16,02,19.70
2013,05,03,16,03,19.60
2013,05,03,16,04,19.60
2013,05,03,16,05,19.70
2013,05,03,16,06,19.60
2013,05,03,16,07,19.60
2013,05,03,16,08,19.60
2013,05,03,16,09,19.70
2013,05,03,16,10,19.70
2013,05,03,16,11,19.70
2013,05,03,16,12,19.70
2013,05,03,16,13,19.80
2013,05,03,16,14,19.90
2013,05,03,16,15,20.00
2013,05,03,16,16,20.10
2013,05,03,16,17,20.20
2013,05,03,16,18,20.30
2013,05,03,16,19,20.40
2013,05,03,16,20,20.40
2013,05,03,16,21,20.50
2013,05,03,16,22,20.40
2013,05,03,16,23,20.30
2013,05,03,16,24,20.20
2013,05,03,16,25,20.00
2013,05,03,16,26,19.80
2013,05,03,16,27,19.80
2013,05,03,16,28,19.70
2013,05,03,16,29,19.70
2013,05,03,16,30,19.70
2013,05,03,16,31,19.80
2013,05,03,16,32,19.80
2013,05,03,16,33,19.90
2013,05,03,16,34,19.90
2013,05,03,16,35,19.90
2013,05,03,16,36,19.90
2013,05,03,16,37,19.80
2013,05,03,16,38,19.80
2013,05,03,16,39,19.80
2013,05,03,16,40,19.80
2013,05,03,16,41,19.80
2013,05,03,16,42,19.70
2013,05,03,16,43,19.70
2013,05,03,16,44,19.70
2013,05,03,16,45,19.70
2013,05,03,16,46,19.70
2013,05,03,16,47,19.60
2013,05,03,16,48,19.50
2013,05,03,16,49,19.40
2013,05,03,16,50,19.30
2013,05,03,16,51,19.30
2013,05,03,16,52,19.20
2013,05,03,16,53,19.20
2013,05,03,16,54,19.20
2013,05,03,16,55,19.10
2013,05,03,16,56,19.10
2013,05,03,16,57,19.10
2013,05,03,16,58,19.10
2013,05,03,16,59,19.10
2013,05,03,17,00,19.20
2013,05,03,17,01,19.30
2013,05,03,17,02,19.30
2013,05,03,17,03,19.40
2013,05,03,17,04,19.50
2013,05,03,17,05,19.50
2013,05,03,17,06,19.60
2013,05,03,17,07,19.60
2013,05,03,17,08,19.70
2013,05,03,17,09,19.80
2013,05,03,17,10,19.90
2013,05,03,17,11,20.00
2013,05,03,17,12,20.10
2013,05,03,17,13,20.20
2013,05,03,17,14,20.30
2013,05,03,17,15,20.40
2013,05,03,17,16,20.50
2013,05,03,17,17,20.60
2013,05,03,17,18,20.70
2013,05,03,17,19,20.70
2013,05,03,17,20,20.80
2013,05,03,17,21,20.90
2013,05,03,17,22,20.90
2013,05,03,17,23,20.90
2013,05,03,17,24,20.90
2013,05,03,17,25,21.00
2013,05,03,17,26,21.00
2013,05,03,17,27,21.00
2013,05,03,17,28,21.00
2013,05,03,17,29,21.10
2013,05,03,17,30,21.10
2013,05,03,17,31,21.10
2013,05,03,17,32,21.10
2013,05,03,17,33,21.10
2013,05,03,17,34,21.10
2013,05,03,17,35,21.10
2013,05,03,17,36,21.10
2013,05,03,17,37,21.00
2013,05,03,17,38,21.00
2013,05,03,17,39,21.10
2013,05,03,17,40,21.10